Location: Chuathbaluk
(61.5726°N, 159.2454°W)
Time: 12:07:35
(UTC+00:00)

N. Korean satellite - Pass Details

Date: 02 November 2020
Orbit: 453 x 503 km, 97.2° (Epoch: 04 December)

Event Time Altitude Azimuth Distance (km) Brightness Sun altitude
Rises 04:01:04 0° 199° (SSW) 2,517 10.6 -10.8°
Reaches altitude 10° 04:03:27 10° 215° (SW) 1,634 9.9 -11.0°
Maximum altitude 04:06:15 22° 268° (W) 1,075 9.4 -11.4°
Drops below altitude 10° 04:09:02 10° 321° (NW) 1,625 9.6 -11.7°
Sets 04:11:25 0° 338° (NNW) 2,499 10.4 -12.0°
